| time (UTC) | temp C | wind direction | speed KPH | gust KPH | rain 1hr cm | rain 24hr cm | rain mn cm | humidity % | barometer mb |
| 20260505040232 | 14 | 23 | 9.7 | 22.5 | 0.00 | 0.00 | 0.00 | 42 | 1005.8 |
| 20260505035729 | 15 | 304 | 6.4 | 20.9 | 0.00 | 0.00 | 0.00 | 43 | 1005.7 |
| 20260505035224 | 15 | 5 | 8.0 | 14.5 | 0.00 | 0.00 | 0.00 | 42 | 1005.5 |
| 20260505034722 | 15 | 18 | 9.7 | 16.1 | 0.00 | 0.00 | 0.00 | 41 | 1005.4 |
| 20260505034219 | 15 | 13 | 14.5 | 20.9 | 0.00 | 0.00 | 0.00 | 40 | 1005.7 |
| 20260505033715 | 15 | 316 | 14.5 | 22.5 | 0.00 | 0.00 | 0.00 | 40 | 1005.4 |
| 20260505033213 | 16 | 343 | 9.7 | 29.0 | 0.00 | 0.00 | 0.00 | 39 | 1005.2 |
| 20260505032711 | 16 | 4 | 8.0 | 16.1 | 0.00 | 0.00 | 0.00 | 38 | 1005.2 |
| 20260505032206 | 16 | 44 | 6.4 | 20.9 | 0.00 | 0.00 | 0.00 | 38 | 1005.2 |
| 20260505031704 | 16 | 19 | 11.3 | 20.9 | 0.00 | 0.00 | 0.00 | 37 | 1005.3 |
| 20260505031200 | 17 | 349 | 12.9 | 22.5 | 0.00 | 0.00 | 0.00 | 36 | 1005.1 |
| 20260505030657 | 17 | 349 | 8.0 | 20.9 | 0.00 | 0.00 | 0.00 | 36 | 1005.1 |
| 20260505030153 | 17 | 5 | 6.4 | 17.7 | 0.00 | 0.00 | 0.00 | 36 | 1005.0 |
| 20260505025649 | 17 | 350 | 6.4 | 17.7 | 0.00 | 0.00 | 0.00 | 36 | 1004.8 |
| 20260505025148 | 18 | 3 | 6.4 | 17.7 | 0.00 | 0.00 | 0.00 | 36 | 1004.6 |
| 20260505024645 | 18 | 322 | 12.9 | 20.9 | 0.00 | 0.00 | 0.00 | 35 | 1004.5 |
| 20260505024142 | 18 | 314 | 8.0 | 14.5 | 0.00 | 0.00 | 0.00 | 35 | 1004.5 |
| 20260505023639 | 18 | 320 | 17.7 | 24.1 | 0.00 | 0.00 | 0.00 | 35 | 1004.2 |
| 20260505023137 | 18 | 358 | 8.0 | 22.5 | 0.00 | 0.00 | 0.00 | 35 | 1004.1 |
| 20260505022634 | 19 | 355 | 14.5 | 24.1 | 0.00 | 0.00 | 0.00 | 35 | 1003.7 |
| 20260505022131 | 19 | 9 | 11.3 | 24.1 | 0.00 | 0.00 | 0.00 | 35 | 1003.5 |
| 20260505021628 | 20 | 341 | 16.1 | 20.9 | 0.00 | 0.00 | 0.00 | 35 | 1003.3 |
| 20260505021124 | 20 | 334 | 8.0 | 20.9 | 0.00 | 0.00 | 0.00 | 36 | 1003.5 |
| 20260505020620 | 20 | 2 | 9.7 | 17.7 | 0.00 | 0.00 | 0.00 | 35 | 1003.2 |
| 20260505020116 | 20 | 326 | 11.3 | 14.5 | 0.00 | 0.00 | 0.00 | 34 | 1003.0 |
| 20260505015614 | 20 | 345 | 11.3 | 17.7 | 0.00 | 0.00 | 0.00 | 34 | 1002.9 |
| 20260505015110 | 20 | 319 | 6.4 | 17.7 | 0.00 | 0.00 | 0.00 | 34 | 1002.7 |
| 20260505014607 | 21 | 13 | 14.5 | 22.5 | 0.00 | 0.00 | 0.00 | 33 | 1002.2 |
| 20260505014104 | 21 | 6 | 8.0 | 14.5 | 0.00 | 0.00 | 0.00 | 34 | 1002.2 |
| 20260505013601 | 21 | 12 | 8.0 | 22.5 | 0.00 | 0.00 | 0.00 | 34 | 1002.1 |
| 20260505013059 | 21 | 355 | 9.7 | 25.7 | 0.00 | 0.00 | 0.00 | 34 | 1002.2 |
| 20260505012556 | 21 | 1 | 8.0 | 16.1 | 0.00 | 0.00 | 0.00 | 35 | 1001.9 |
| 20260505012053 | 22 | 8 | 6.4 | 14.5 | 0.00 | 0.00 | 0.00 | 35 | 1001.8 |
| 20260505011549 | 22 | 5 | 9.7 | 16.1 | 0.00 | 0.00 | 0.00 | 34 | 1001.8 |
| 20260505011046 | 22 | 349 | 6.4 | 16.1 | 0.00 | 0.00 | 0.00 | 35 | 1001.4 |
| 20260505010542 | 22 | 18 | 4.8 | 20.9 | 0.00 | 0.00 | 0.00 | 37 | 1001.6 |
| 20260505010038 | 22 | 13 | 3.2 | 11.3 | 0.00 | 0.00 | 0.00 | 37 | 1001.4 |
| 20260505005534 | 23 | 323 | 9.7 | 12.9 | 0.00 | 0.00 | 0.00 | 36 | 1001.0 |
| 20260505005032 | 24 | 333 | 14.5 | 16.1 | 0.00 | 0.00 | 0.00 | 35 | 1001.2 |
| 20260505004529 | 24 | 338 | 6.4 | 14.5 | 0.00 | 0.00 | 0.00 | 35 | 1000.8 |
| 20260505004026 | 24 | 327 | 8.0 | 11.3 | 0.00 | 0.00 | 0.00 | 34 | 1000.7 |
| 20260505003523 | 24 | 347 | 6.4 | 6.4 | 0.00 | 0.00 | 0.00 | 34 | 1000.6 |
| 20260505003020 | 24 | 333 | 1.6 | 6.4 | 0.00 | 0.00 | 0.00 | 32 | 1000.3 |
| 20260505002520 | 23 | 331 | 1.6 | 6.4 | 0.00 | 0.00 | 0.00 | 31 | 1000.5 |
| 20260505002015 | 23 | 316 | 4.8 | 6.4 | 0.00 | 0.00 | 0.00 | 33 | 1000.4 |
| 20260505001512 | 24 | 287 | 8.0 | 9.7 | 0.00 | 0.00 | 0.00 | 31 | 1000.2 |
| 20260505001009 | 24 | 321 | 6.4 | 9.7 | 0.00 | 0.00 | 0.00 | 31 | 1000.4 |
| 20260505000506 | 24 | 296 | 6.4 | 12.9 | 0.00 | 0.00 | 0.00 | 31 | 1000.2 |
| 20260505000003 | 25 | 298 | 9.7 | 12.9 | 0.00 | 0.00 | 0.00 | 32 | 1000.1 |
| 20260504235500 | 25 | 286 | 11.3 | 12.9 | 0.00 | 0.00 | 0.00 | 29 | 1000.2 |
| 20260504234956 | 26 | 297 | 9.7 | 20.9 | 0.00 | 0.00 | 0.00 | 29 | 1000.3 |
| 20260504234454 | 25 | 278 | 9.7 | 16.1 | 0.00 | 0.00 | 0.00 | 31 | 1000.5 |
| 20260504233950 | 26 | 277 | 12.9 | 17.7 | 0.00 | 0.00 | 0.00 | 28 | 1000.2 |
| 20260504233446 | 26 | 287 | 11.3 | 14.5 | 0.00 | 0.00 | 0.00 | 29 | 1000.0 |
| 20260504232943 | 26 | 329 | 9.7 | 16.1 | 0.00 | 0.00 | 0.00 | 29 | 1000.1 |
| 20260504232440 | 26 | 285 | 11.3 | 17.7 | 0.00 | 0.00 | 0.00 | 29 | 1000.0 |
| 20260504231937 | 26 | 292 | 12.9 | 20.9 | 0.00 | 0.00 | 0.00 | 29 | 1000.2 |
| 20260504231433 | 26 | 328 | 8.0 | 16.1 | 0.00 | 0.00 | 0.00 | 35 | 1000.1 |
| 20260504230930 | 26 | 282 | 8.0 | 11.3 | 0.00 | 0.00 | 0.00 | 36 | 1000.1 |
| 20260504230426 | 26 | 345 | 6.4 | 17.7 | 0.00 | 0.00 | 0.00 | 35 | 1000.2 |
| 20260504225926 | 26 | 330 | 9.7 | 17.7 | 0.00 | 0.00 | 0.00 | 35 | 1000.3 |
| 20260504225422 | 25 | 321 | 9.7 | 12.9 | 0.00 | 0.00 | 0.00 | 38 | 1000.6 |
| 20260504224920 | 25 | 312 | 12.9 | 20.9 | 0.00 | 0.00 | 0.00 | 37 | 1000.4 |
| 20260504224416 | 26 | 349 | 6.4 | 9.7 | 0.00 | 0.00 | 0.00 | 34 | 1000.1 |
| 20260504223913 | 26 | 289 | 6.4 | 25.7 | 0.00 | 0.00 | 0.00 | 33 | 1000.1 |
| 20260504223408 | 26 | 290 | 9.7 | 17.7 | 0.00 | 0.00 | 0.00 | 35 | 1000.2 |
| 20260504222905 | 26 | 293 | 17.7 | 25.7 | 0.00 | 0.00 | 0.00 | 34 | 1000.1 |
| 20260504222402 | 26 | 317 | 16.1 | 20.9 | 0.00 | 0.00 | 0.00 | 36 | 1000.1 |
| 20260504221900 | 26 | 6 | 3.2 | 14.5 | 0.00 | 0.00 | 0.00 | 36 | 1000.0 |
| 20260504221356 | 26 | 237 | 3.2 | 20.9 | 0.00 | 0.00 | 0.00 | 40 | 1000.1 |
| 20260504220854 | 26 | 308 | 11.3 | 20.9 | 0.00 | 0.00 | 0.00 | 35 | 999.8 |
| 20260504220350 | 27 | 1 | 17.7 | 20.9 | 0.00 | 0.00 | 0.00 | 34 | 999.9 |
| 20260504215848 | 27 | 292 | 11.3 | 16.1 | 0.00 | 0.00 | 0.00 | 34 | 1000.0 |
| 20260504215344 | 27 | 326 | 17.7 | 24.1 | 0.00 | 0.00 | 0.00 | 34 | 999.8 |
| 20260504214840 | 27 | 75 | 1.6 | 6.4 | 0.00 | 0.00 | 0.00 | 38 | 999.7 |
| 20260504214337 | 27 | 324 | 3.2 | 12.9 | 0.00 | 0.00 | 0.00 | 35 | 1000.1 |
| 20260504213834 | 26 | 321 | 6.4 | 12.9 | 0.00 | 0.00 | 0.00 | 39 | 1000.0 |
| 20260504213330 | 26 | 317 | 9.7 | 22.5 | 0.00 | 0.00 | 0.00 | 38 | 999.9 |
| 20260504212827 | 27 | 295 | 9.7 | 16.1 | 0.00 | 0.00 | 0.00 | 41 | 999.9 |
| 20260504212323 | 28 | 342 | 6.4 | 14.5 | 0.00 | 0.00 | 0.00 | 36 | 999.9 |
| 20260504211821 | 27 | 19 | 3.2 | 14.5 | 0.00 | 0.00 | 0.00 | 39 | 999.9 |
| 20260504211317 | 26 | 40 | 6.4 | 12.9 | 0.00 | 0.00 | 0.00 | 37 | 999.9 |
| 20260504210815 | 26 | 213 | 3.2 | 6.4 | 0.00 | 0.00 | 0.00 | 38 | 1000.0 |
| 20260504210312 | 26 | 300 | 11.3 | 14.5 | 0.00 | 0.00 | 0.00 | 37 | 1000.0 |
| 20260504205809 | 27 | 320 | 6.4 | 11.3 | 0.00 | 0.00 | 0.00 | 37 | 999.8 |
| 20260504205306 | 27 | 271 | 9.7 | 16.1 | 0.00 | 0.00 | 0.00 | 38 | 1000.0 |
| 20260504204804 | 28 | 304 | 14.5 | 20.9 | 0.00 | 0.00 | 0.00 | 36 | 1000.1 |
| 20260504204303 | 27 | 62 | 1.6 | 6.4 | 0.00 | 0.00 | 0.00 | 36 | 1000.0 |
| 20260504203802 | 26 | 69 | 3.2 | 9.7 | 0.00 | 0.00 | 0.00 | 37 | 1000.3 |
| 20260504203258 | 27 | 66 | 3.2 | 9.7 | 0.00 | 0.00 | 0.00 | 37 | 1000.2 |
| 20260504202758 | 27 | 61 | 4.8 | 6.4 | 0.00 | 0.00 | 0.00 | 36 | 1000.1 |
| 20260504202256 | 28 | 35 | 3.2 | 4.8 | 0.00 | 0.00 | 0.00 | 38 | 1000.3 |
| 20260504201753 | 27 | 140 | 6.4 | 11.3 | 0.00 | 0.00 | 0.00 | 38 | 1000.1 |
| 20260504201250 | 28 | 76 | 3.2 | 9.7 | 0.00 | 0.00 | 0.00 | 39 | 1000.2 |
| 20260504200748 | 28 | 92 | 0.0 | 4.8 | 0.00 | 0.00 | 0.00 | 39 | 1000.3 |
| 20260504200243 | 27 | 15 | 3.2 | 9.7 | 0.00 | 0.00 | 0.00 | 38 | 1000.3 |
| 20260504195740 | 28 | 52 | 1.6 | 6.4 | 0.00 | 0.00 | 0.00 | 40 | 1000.6 |
| 20260504195236 | 27 | 106 | 1.6 | 3.2 | 0.00 | 0.00 | 0.00 | 40 | 1000.3 |
| 20260504194734 | 27 | 29 | 1.6 | 9.7 | 0.00 | 0.00 | 0.00 | 38 | 1000.6 |
| 20260504194229 | 27 | 54 | 1.6 | 4.8 | 0.00 | 0.00 | 0.00 | 40 | 1000.5 |
| 20260504193726 | 27 | 66 | 1.6 | 4.8 | 0.00 | 0.00 | 0.00 | 42 | 1000.6 |
| 20260504193224 | 27 | 111 | 3.2 | 6.4 | 0.00 | 0.00 | 0.00 | 41 | 1000.6 |
| 20260504192722 | 27 | 57 | 3.2 | 6.4 | 0.00 | 0.00 | 0.00 | 43 | 1000.7 |
| 20260504192220 | 27 | 21 | 1.6 | 9.7 | 0.00 | 0.00 | 0.00 | 41 | 1000.5 |
| 20260504191718 | 27 | 292 | 1.6 | 9.7 | 0.00 | 0.00 | 0.00 | 40 | 1000.7 |
| 20260504191215 | 27 | 77 | 1.6 | 11.3 | 0.00 | 0.00 | 0.00 | 43 | 1000.8 |
| 20260504190710 | 27 | 37 | 3.2 | 4.8 | 0.00 | 0.00 | 0.00 | 43 | 1000.9 |
| 20260504190206 | 27 | 28 | 6.4 | 6.4 | 0.00 | 0.00 | 0.00 | 42 | 1000.9 |
| 20260504185703 | 27 | 358 | 3.2 | 9.7 | 0.00 | 0.00 | 0.00 | 42 | 1000.8 |
| 20260504185200 | 26 | 20 | 6.4 | 9.7 | 0.00 | 0.00 | 0.00 | 43 | 1000.9 |
| 20260504184656 | 26 | 53 | 3.2 | 6.4 | 0.00 | 0.00 | 0.00 | 46 | 1001.0 |
| 20260504184151 | 26 | 196 | 1.6 | 6.4 | 0.00 | 0.00 | 0.00 | 43 | 1000.9 |
| 20260504183648 | 26 | 69 | 1.6 | 11.3 | 0.00 | 0.00 | 0.00 | 46 | 1000.9 |
| 20260504183145 | 26 | 95 | 3.2 | 6.4 | 0.00 | 0.00 | 0.00 | 45 | 1001.0 |
| 20260504182643 | 26 | 50 | 1.6 | 6.4 | 0.00 | 0.00 | 0.00 | 44 | 1001.0 |
| 20260504182140 | 26 | 89 | 4.8 | 9.7 | 0.00 | 0.00 | 0.00 | 44 | 1001.1 |
| 20260504181638 | 26 | 24 | 4.8 | 11.3 | 0.00 | 0.00 | 0.00 | 44 | 1000.9 |
| 20260504181135 | 26 | 253 | 3.2 | 4.8 | 0.00 | 0.00 | 0.00 | 45 | 1001.0 |
| 20260504180634 | 26 | 214 | 3.2 | 6.4 | 0.00 | 0.00 | 0.00 | 46 | 1001.1 |
| 20260504180132 | 26 | 48 | 1.6 | 6.4 | 0.00 | 0.00 | 0.00 | 51 | 1001.0 |
| 20260504175629 | 25 | 64 | 1.6 | 4.8 | 0.00 | 0.00 | 0.00 | 48 | 1001.1 |
| 20260504175126 | 26 | 70 | 1.6 | 4.8 | 0.00 | 0.00 | 0.00 | 48 | 1001.2 |
| 20260504174624 | 26 | 187 | 1.6 | 6.4 | 0.00 | 0.00 | 0.00 | 47 | 1001.2 |
| 20260504174120 | 26 | 41 | 4.8 | 6.4 | 0.00 | 0.00 | 0.00 | 47 | 1001.0 |
| 20260504173618 | 25 | 319 | 1.6 | 4.8 | 0.00 | 0.00 | 0.00 | 47 | 1001.1 |
| 20260504173115 | 25 | 43 | 1.6 | 6.4 | 0.00 | 0.00 | 0.00 | 52 | 1001.3 |
| 20260504172611 | 25 | 105 | 3.2 | 6.4 | 0.00 | 0.00 | 0.00 | 45 | 1001.2 |
| 20260504172108 | 25 | 72 | 1.6 | 6.4 | 0.00 | 0.00 | 0.00 | 48 | 1001.4 |
| 20260504171604 | 25 | 41 | 3.2 | 9.7 | 0.00 | 0.00 | 0.00 | 47 | 1001.2 |
| 20260504171102 | 25 | 40 | 3.2 | 4.8 | 0.00 | 0.00 | 0.00 | 49 | 1001.3 |
| 20260504170557 | 25 | 67 | 1.6 | 6.4 | 0.00 | 0.00 | 0.00 | 48 | 1001.2 |
| 20260504150941 | 22 | 203 | 4.8 | 9.7 | 0.00 | 0.00 | 0.00 | 53 | 1001.8 |
| 20260504150438 | 21 | 49 | 4.8 | 11.3 | 0.00 | 0.00 | 0.00 | 52 | 1001.8 |
| 20260504140904 | 20 | 54 | 3.2 | 9.7 | 0.00 | 0.00 | 0.00 | 57 | 1002.3 |
| 20260504140400 | 20 | 155 | 3.2 | 4.8 | 0.00 | 0.00 | 0.00 | 56 | 1002.1 |
| 20260504130325 | 16 | 203 | 3.2 | 6.4 | 0.00 | 0.00 | 0.00 | 65 | 1002.3 |
| 20260504120249 | 13 | 134 | 3.2 | 6.4 | 0.00 | 0.00 | 0.00 | 71 | 1002.6 |
| 20260504110716 | 12 | 132 | 3.2 | 6.4 | 0.00 | 0.00 | 0.00 | 68 | 1002.7 |
| 20260504110212 | 13 | 132 | 3.2 | 9.7 | 0.00 | 0.00 | 0.00 | 68 | 1002.7 |
| 20260504100136 | 13 | 110 | 4.8 | 9.7 | 0.00 | 0.00 | 0.00 | 66 | 1003.6 |
| 20260504081529 | 12 | 95 | 3.2 | 4.8 | 0.00 | 0.00 | 0.00 | 66 | 1005.0 |
| 20260504081025 | 12 | 89 | 1.6 | 3.2 | 0.00 | 0.00 | 0.00 | 68 | 1005.3 |
| 20260504080522 | 12 | 89 | 0.0 | 1.6 | 0.00 | 0.00 | 0.00 | 68 | 1005.2 |
| 20260504050334 | 15 | 26 | 0.0 | 0.0 | 0.00 | 0.00 | 0.00 | 54 | 1006.9 |
| 20260504045831 | 13 | 26 | 0.0 | 0.0 | 0.00 | 0.00 | 0.00 | 55 | 1006.7 |
| 20260504045326 | 13 | 26 | 0.0 | 0.0 | 0.00 | 0.00 | 0.00 | 57 | 1006.8 |
| 20260504044823 | 13 | 26 | 0.0 | 0.0 | 0.00 | 0.00 | 0.00 | 59 | 1006.9 |
| 20260504044321 | 13 | 25 | 0.0 | 0.0 | 0.00 | 0.00 | 0.00 | 58 | 1007.0 |
| 20260504043818 | 14 | 25 | 0.0 | 0.0 | 0.00 | 0.00 | 0.00 | 61 | 1006.9 |
| 20260504043315 | 13 | 25 | 0.0 | 0.0 | 0.00 | 0.00 | 0.00 | 58 | 1007.1 |
| 20260504042813 | 13 | 25 | 0.0 | 0.0 | 0.00 | 0.00 | 0.00 | 59 | 1006.8 |
| 20260504042309 | 13 | 25 | 0.0 | 0.0 | 0.00 | 0.00 | 0.00 | 63 | 1007.0 |
| 20260504041805 | 14 | 25 | 0.0 | 0.0 | 0.00 | 0.00 | 0.00 | 60 | 1007.0 |
| 20260504041301 | 14 | 25 | 0.0 | 0.0 | 0.00 | 0.00 | 0.00 | 58 | 1007.1 |
| 20260504040758 | 15 | 25 | 0.0 | 0.0 | 0.00 | 0.00 | 0.00 | 55 | 1007.1 |